Regional Weather Roundup
Issued by NWS Portland, ME

Home | Current Version | Previous Version | Text Only | Print | Product List | Glossary On
Versions: 1 2 3 4 5 6 7 8 9 10 11 12 13 14 15 16 17 18 19 20 21 22 23 24 25 26 27 28 29 30 31 32 33 34 35 36 37 38 39 40 41 42 43 44 45 46 47 48 49 50
000
ASUS41 KGYX 270710
RWRGYX
WEATHER ROUNDUP FOR MAINE AND NEW HAMPSHIRE
NATIONAL WEATHER SERVICE GRAY ME
300 AM EDT WED JUL 27 2016

MEZ002-005-006-010-012-015-018-020-021-024-026-027-029-270800-
MAINE

CITY           SKY/WX    TMP DP  RH WIND       PRES   REMARKS
PORTLAND       CLEAR     67  61  81 W3        29.88S
SANFORD          N/A     60  59  96 CALM      29.90S
BAR HARBOR     CLEAR     65  64  97 CALM      29.84F
WISCASSET      CLEAR     65  61  87 CALM      29.88S
ROCKLAND       CLEAR     65  62  90 W5        29.85F
FRYEBURG       NOT AVBL
LEWISTONAUBURN CLEAR     64  61  90 N3        29.88S
AUGUSTA        CLEAR     68  61  78 W6        29.88R
WATERVILLE     CLEAR     67  62  84 CALM      29.85R
BANGOR         CLEAR     70  62  76 CALM      29.85S
GREENVILLE       N/A     65  59  81 N6        29.88S
MILLINOCKET    CLEAR     68  63  84 W3        29.85S
HOULTON        CLEAR     63  63 100 CALM      29.82S
PRESQUE ISLE   PTCLDY    61  61 100 CALM      29.84R FOG
FRENCHVILLE    FOG       62  60  93 SW5       29.83R VSB 1
CARIBOU        CLEAR     64  62  93 W3        29.82S
$$

NHZ002-005-008-009-011-012-014-270800-
NEW HAMPSHIRE

CITY           SKY/WX    TMP DP  RH WIND       PRES   REMARKS
PORTSMOUTH     CLEAR     67  60  78 W3        29.88S
ROCHESTER      CLEAR     65  59  81 CALM      29.89S
NASHUA         CLEAR     69  60  73 W5        29.91S
MANCHESTER     CLEAR     71  59  65 CALM      29.89S
CONCORD        CLEAR     63  58  83 CALM      29.92R
LACONIA        CLEAR     65  61  87 CALM      29.92S
PLYMOUTH       FAIR      59  58  95 CALM      29.92S
BERLIN         CLEAR     55  52  89 CALM      29.94S
WHITEFIELD     PTCLDY    56  53  90 CALM      29.94S
JAFFREY        CLEAR     62  58  86 SE3       29.96S
KEENE          MOCLDY    61  59  93 CALM      29.96S
LEBANON        PTCLDY    61  58  90 CALM      29.94R
MT WASHINGTON  FOG       48  48 100 N22         N/A  VSB 1/8
$$

VTZ005-007-008-270800-
VERMONT

CITY           SKY/WX    TMP DP  RH WIND       PRES   REMARKS
ST JOHNSBURY     N/A     62  58  86 MISG      29.92S
MONTPELIER     FAIR      59  58  96 CALM      29.99R
BURLINGTON     FAIR      65  61  87 CALM      29.92R
$$

MAZ007-012-024-CTZ003-RIZ002-NYZ038-NYZ072-270800-
SOUTHERN NEW ENGLAND AND NY

CITY           SKY/WX    TMP DP  RH WIND       PRES   REMARKS
BOSTON         CLEAR     77  59  53 NW10      29.89S
WORCESTER      CLEAR     68  57  68 NW9       29.95F
NANTUCKET      PTCLDY    74  67  78 N10       29.88R
PROVIDENCE     CLEAR     72  61  68 W3        29.91S
HARTFORD       PTCLDY    69  61  75 N5        29.92S
ALBANY         PTCLDY    65  58  78 CALM      29.95S
NEW YORK CITY  MOCLDY    79  64  60 NE6       29.92S
$$

ANZ081-ANZ082-ANZ150-NHZ014-MEZ023>029-270800-
COASTAL MARINE OBSERVATIONS

STATION/POSITION TIME  TEMP    WIND        PRES    WAVE
                       AIR SEA DIR/SP/G            HT/PER
                 (UTC) (F)     (DEG/KT/KT) (MB)    (FT/S)
MOUNT DESERT ROC 0700   68     300/  8/  9 1010.4S
MATINICUS ROCK   0600   68     320/  9/  9 1010.4F
ISLE OF SHOALS   0600   72     300/  9/ 10 1011.6R
JEFFREYS LEDGE   0608      68                N/A     1/ 6
CASHES LEDGE BUO 0650   72 71  320/ 10/ 12 1010.6F   2/ 3
GEORGES BANK BUO 0650   65 64              1010.0S   3/ 7
$$

.............KEY..............
   WCI - WIND CHILL
   TC  - TEMPERATURE IN CELSIUS
   VSB - VISIBILITY IN MILES
   HX  - HEAT INDEX
   FAIR- INDICATES FEW OR NO CLOUDS BELOW 12,000 FT, WITH NO
         SIGNIFICANT WEATHER AND/OR OBSTRUCTIONS TO VISIBILITY.





USA.gov is the U.S. government's official web portal to all federal, state and local government web resources and services.